Regional Weather Roundup
Issued by NWS Little Rock, AR

Home | Current Version | Previous Version | Text Only | Print | Product List | Glossary Off
Versions: 1 2 3 4 5 6 7 8 9 10 11 12 13 14 15 16 17 18 19 20 21 22 23 24 25 26 27

000
ASUS44 KLZK 151705
RWRLZK

WEATHER ROUNDUP FOR ARKANSAS
NATIONAL WEATHER SERVICE LITTLE ROCK AR
1200 PM CDT TUE APR 15 2014

NOTE: "FAIR" INDICATES FEW OR NO CLOUDS BELOW 12,000 FEET WITH NO
SIGNIFICANT WEATHER AND/OR OBSTRUCTIONS TO VISIBILITY.

ARZ001-003-010-029-151800-
NORTHWEST ARKANSAS

CITY           SKY/WX    TMP DP  RH WIND       PRES   REMARKS
FAYETTEVILLE   SUNNY     48  24  39 N6        30.24F
FORT SMITH     SUNNY     52  25  35 W8        30.27F
HARRISON       SUNNY     47  25  42 W8        30.24S
BENTONVILLE    SUNNY     46  23  39 W9        30.25F
ROGERS         SUNNY     47  24  40 W9        30.25S
SILOAM SPGS    SUNNY     50  25  37 NW8       30.26S
HIGHFILL       SUNNY     47  22  37 VRB3      30.23F
SPRINGDALE     SUNNY     48  19  32 NW3G14    30.26S
$$

ARZ004-005-016-151800-
NORTH CENTRAL ARKANSAS

CITY           SKY/WX    TMP DP  RH WIND       PRES   REMARKS
FLIPPIN        SUNNY     45  21  39 NW6       30.26S
MTN HOME       MOSUNNY   46  20  35 N6        30.23F
$$

ARZ040-041-151800-
WEST CENTRAL ARKANSAS

CITY           SKY/WX    TMP DP  RH WIND       PRES   REMARKS
MENA           SUNNY     54  21  28 W5        30.25F
MOUNT IDA      SUNNY     51  23  33 VRB6      30.23F
$$

ARZ009-017-025-026-028-151800-
NORTHEAST ARKANSAS

CITY           SKY/WX    TMP DP  RH WIND       PRES   REMARKS
CORNING          N/A     46  19  34 N10G22    30.26S
JONESBORO      SUNNY     45  22  40 N12G20    30.27R
NEWPORT        MOSUNNY   46  26  46 N14       30.28F
BLYTHEVILLE    SUNNY     45  26  47 N20       30.26R
$$

ARZ022-023-033-042-044-151800-
CENTRAL ARKANSAS

CITY           SKY/WX    TMP DP  RH WIND       PRES   REMARKS
LITTLE ROCK    MOSUNNY   51  27  39 N6        30.28F
N LITTLE ROCK  MOSUNNY   48  29  47 N6        30.28F
JACKSONVILLE   SUNNY     49  27  42 N8G17     30.28
SEARCY         SUNNY     47  27  46 VRB6      30.29F
HOT SPRINGS    SUNNY     52  24  33 NW7       30.27S
RUSSELLVILLE   SUNNY     50  25  37 CALM      30.26F
CLINTON        FAIR      48  27  43 W7        30.26F
$$

ARZ036-151800-
EAST ARKANSAS

CITY           SKY/WX    TMP DP  RH WIND       PRES   REMARKS
WEST MEMPHIS   SUNNY     45  23  42 N17G26    30.26R
$$

ARZ050-053-066-070-073-151800-
SOUTHWEST ARKANSAS

CITY           SKY/WX    TMP DP  RH WIND       PRES   REMARKS
ARKADELPHIA    FAIR      50  27  41 VRB3      30.29S
CAMDEN         SUNNY     52  25  35 MISG      30.29F
TEXARKANA      SUNNY     53  26  35 N7        30.28F
EL DORADO      SUNNY     51  28  41 NE10G20   30.28F
DE QUEEN       SUNNY     54  25  32 CALM      30.26F
$$

ARZ056-057-069-151800-
SOUTHEAST ARKANSAS

CITY           SKY/WX    TMP DP  RH WIND       PRES   REMARKS
PINE BLUFF     SUNNY     46  27  47 NE8       30.29F
STUTTGART      SUNNY     46  27  46 N13G21    30.28F
MONTICELLO     SUNNY     50  27  40 N10       30.27F

$$





USA.gov is the U.S. government's official web portal to all federal, state and local government web resources and services.